GLOBALSTAR M045 [-]

Last updated on Fri Dec 29 2023 00:02:56 GMT+0000 (Coordinated Universal Time)

1 25676U 99019A 23362.29599964 -.00000020 00000+0 65205-3 0 9996 2 25676 51.9991 35.4757 0000710 214.3064 226.8469 12.27022796127725
UTC large
Height (km)
Speed (km/s)
/
Latitude / Longitude
Inclination (degrees)
Orbital Period (minutes)
Azimuth
Elevation
Range (km)
Doppler Factor

Next 0 passes for location: London (51.5072 / 0.1276)

Sorry there are no passes over London.